GW6766 Weather Reports


Display with metric or nautical units.
time (UTC)temp
F
wind
direction
speed
MPH
gust
MPH
rain 1hr
in
rain 24hr
in
rain mn
in
humidity
%
barometer
mb
20260503204504 65 201 8.0 14.0 0.00 0.01 0.01 48 1005.3
20260503203742 64 188 8.0 15.0 0.00 0.01 0.01 49 1005.5
20260503203242 64 180 8.0 15.0 0.01 0.01 0.01 50 1005.5
20260503202742 64 172 8.0 20.0 0.01 0.01 0.01 50 1005.9
20260503202243 64 231 9.0 20.0 0.01 0.01 0.01 50 1006.0
20260503201742 64 165 10.0 20.0 0.01 0.01 0.01 49 1006.0
20260503201242 64 171 9.0 20.0 0.01 0.01 0.01 49 1006.1
20260503201009 64 197 8.0 18.0 0.01 0.01 0.01 49 1006.2
20260503200243 64 213 9.0 18.0 0.01 0.01 0.01 47 1006.3
20260503195743 64 189 9.0 18.0 0.01 0.01 0.01 48 1006.2
20260503195243 64 224 9.0 18.0 0.01 0.01 0.01 47 1006.3
20260503194739 64 227 9.0 18.0 0.01 0.01 0.01 46 1006.4
20260503194239 64 218 9.0 18.0 0.01 0.01 0.01 44 1006.3
20260503193741 65 264 9.0 17.0 0.01 0.01 0.01 44 1006.3
20260503193459 65 233 9.0 19.0 0.00 0.00 0.00 44 1006.3
20260503192740 64 186 10.0 19.0 0.00 0.00 0.00 44 1006.3
20260503192242 65 208 10.0 16.0 0.00 0.00 0.00 43 1006.2
20260503191743 65 184 9.0 19.0 0.00 0.00 0.00 42 1006.2
20260503191241 64 210 10.0 19.0 0.00 0.00 0.00 43 1006.4
20260503191003 65 215 9.0 19.0 0.00 0.00 0.00 42 1006.3
20260503190241 65 275 9.0 14.0 0.00 0.00 0.00 43 1006.7
20260503185741 64 212 9.0 14.0 0.00 0.00 0.00 43 1006.5
20260503185241 64 163 8.0 13.0 0.00 0.00 0.00 44 1006.7
20260503184740 64 157 8.0 15.0 0.00 0.00 0.00 44 1006.7
20260503184239 64 173 8.0 15.0 0.00 0.00 0.00 44 1006.5
20260503183739 63 152 8.0 14.0 0.00 0.00 0.00 46 1006.9
20260503183239 63 157 8.0 13.0 0.00 0.00 0.00 45 1007.0
20260503182737 63 205 9.0 16.0 0.00 0.00 0.00 47 1007.2
20260503182718 62 217 10.0 27.0 0.00 0.00 0.00 48 1007.2
20260503181738 62 181 9.0 27.0 0.00 0.00 0.00 49 1007.4
20260503181459 62 209 8.0 16.0 0.00 0.00 0.00 50 1007.4
20260503180738 61 194 9.0 18.0 0.00 0.00 0.00 51 1007.5
20260503180238 61 192 10.0 18.0 0.00 0.00 0.00 51 1007.6
20260503175739 60 171 9.0 15.0 0.00 0.00 0.00 52 1007.6
20260503175239 60 176 9.0 19.0 0.00 0.00 0.00 53 1007.8
20260503175218 59 182 10.0 21.0 0.00 0.00 0.00 53 1007.9
20260503174234 59 177 11.0 21.0 0.00 0.00 0.00 53 1007.6
20260503173733 59 177 10.0 16.0 0.00 0.00 0.00 53 1008.0
20260503173233 59 197 8.0 15.0 0.00 0.00 0.00 53 1008.2
20260503172734 58 209 7.0 12.0 0.00 0.00 0.00 54 1008.3
20260503172234 57 141 8.0 15.0 0.00 0.00 0.00 57 1008.5
20260503171733 57 190 8.0 15.0 0.00 0.00 0.00 55 1008.3
20260503171236 57 160 8.0 15.0 0.00 0.00 0.00 56 1008.5
20260503170734 56 124 8.0 15.0 0.00 0.00 0.00 58 1008.6
20260503170234 57 174 7.0 16.0 0.00 0.00 0.00 58 1008.8
20260503150725 58 181 8.0 18.0 0.00 0.00 0.00 53 1009.8
20260503150225 58 197 8.0 18.0 0.00 0.00 0.00 51 1009.9
20260503140220 56 251 9.0 14.0 0.00 0.00 0.00 53 1010.5
20260503131218 53 240 5.0 11.0 0.00 0.00 0.00 55 1010.9
20260503130718 52 254 6.0 11.0 0.00 0.00 0.00 54 1010.9
20260503130219 52 252 7.0 15.0 0.00 0.00 0.00 54 1010.9
20260503120215 51 184 5.0 10.0 0.00 0.00 0.00 53 1011.1
20260503110714 49 260 5.0 12.0 0.00 0.00 0.00 52 1010.8
20260503110216 49 204 4.0 12.0 0.00 0.00 0.00 52 1010.9
20260503100207 49 242 6.0 9.0 0.00 0.00 0.00 52 1011.2
20260503090156 49 217 6.0 11.0 0.00 0.00 0.00 49 1011.7
20260503081422 50 210 6.0 10.0 0.00 0.00 0.00 49 1012.1
20260503080656 50 176 5.0 9.0 0.00 0.00 0.00 49 1012.2
20260503080156 50 201 5.0 9.0 0.00 0.00 0.00 49 1012.2
20260503072645 49 203 5.0 10.0 0.00 0.00 0.00 49 1012.3
20260503072141 49 235 6.0 10.0 0.00 0.00 0.00 49 1012.4
20260503071636 49 262 5.0 10.0 0.00 0.00 0.00 49 1012.3
20260503071134 49 202 5.0 9.0 0.00 0.00 0.00 49 1012.4
20260503070859 49 246 6.0 11.0 0.00 0.00 0.00 50 1012.5
20260503070134 49 180 6.0 11.0 0.00 0.00 0.00 49 1012.5
20260503060134 49 217 4.0 9.0 0.00 0.00 0.00 50 1013.0
20260503054633 48 204 4.0 7.0 0.00 0.00 0.00 51 1013.1
20260503054133 48 192 4.0 8.0 0.00 0.00 0.00 52 1013.1
20260503053852 48 173 4.0 9.0 0.00 0.00 0.00 52 1013.2
20260503053132 48 183 4.0 10.0 0.00 0.00 0.00 51 1013.2
20260503052851 48 198 4.0 10.0 0.00 0.00 0.00 52 1013.2
20260503052404 48 168 4.0 9.0 0.00 0.00 0.00 52 1013.2
20260503051633 47 157 3.0 9.0 0.00 0.00 0.00 53 1013.3
20260503051129 47 210 3.0 6.0 0.00 0.00 0.00 55 1013.3
20260503050629 47 268 3.0 6.0 0.00 0.00 0.00 56 1013.4
20260503050129 46 188 3.0 6.0 0.00 0.00 0.00 57 1013.4
20260503045629 46 170 3.0 6.0 0.00 0.00 0.00 58 1013.4
20260503045129 45 264 3.0 6.0 0.00 0.00 0.00 62 1013.4
20260503044856 45 163 3.0 5.0 0.00 0.00 0.00 63 1013.5
20260503044354 45 173 3.0 5.0 0.00 0.00 0.00 64 1013.5
20260503043629 44 176 2.0 4.0 0.00 0.00 0.00 67 1013.5
20260503043129 44 163 2.0 5.0 0.00 0.00 0.00 68 1013.6
20260503042630 44 163 3.0 5.0 0.00 0.00 0.00 69 1013.6
20260503042129 42 171 3.0 5.0 0.00 0.00 0.00 70 1013.7
20260503041629 41 180 2.0 4.0 0.00 0.00 0.00 75 1013.7
20260503041127 41 196 2.0 3.0 0.00 0.00 0.00 77 1013.8
20260503040623 40 201 1.0 3.0 0.00 0.00 0.00 79 1013.8
20260503040124 40 190 1.0 2.0 0.00 0.00 0.00 79 1013.8
20260503035627 40 139 1.0 2.0 0.00 0.00 0.00 78 1013.9
20260503035125 40 275 1.0 2.0 0.00 0.00 0.00 77 1013.9
20260503034626 41 178 1.0 2.0 0.00 0.00 0.00 76 1013.9
20260503034125 41 275 1.0 2.0 0.00 0.00 0.00 76 1014.0
20260503033626 42 171 2.0 2.0 0.00 0.00 0.00 75 1014.0
20260503033125 42 184 2.0 4.0 0.00 0.00 0.00 73 1014.0
20260503032835 43 115 3.0 5.0 0.00 0.00 0.00 71 1014.1
20260503032716 43 189 3.0 5.0 0.00 0.00 0.00 72 1014.1
20260503031623 43 179 3.0 5.0 0.00 0.00 0.00 71 1014.1
20260503031123 43 152 3.0 5.0 0.00 0.00 0.00 71 1014.2
20260503030623 43 159 3.0 4.0 0.00 0.00 0.00 71 1014.3
20260503030123 43 164 3.0 4.0 0.00 0.00 0.00 71 1014.3
20260503025623 44 163 3.0 6.0 0.00 0.00 0.00 70 1014.4
20260503025124 44 155 4.0 6.0 0.00 0.00 0.00 69 1014.4
20260503025108 44 155 4.0 6.0 0.00 0.00 0.00 69 1014.4
20260503024124 44 146 4.0 6.0 0.00 0.00 0.00 68 1014.4
20260503023623 44 144 4.0 6.0 0.00 0.00 0.00 68 1014.4
20260503023124 44 144 3.0 6.0 0.00 0.00 0.00 68 1014.4
20260503022624 44 151 3.0 5.0 0.00 0.00 0.00 68 1014.4
20260503022124 44 150 2.0 5.0 0.00 0.00 0.00 68 1014.4
20260503021626 44 356 2.0 4.0 0.00 0.00 0.00 68 1014.4
20260503021119 45 196 3.0 6.0 0.00 0.00 0.00 67 1014.4
20260503020622 45 160 4.0 6.0 0.00 0.00 0.00 65 1014.4
20260503020119 45 187 4.0 6.0 0.00 0.00 0.00 65 1014.3
20260503015846 45 154 5.0 7.0 0.00 0.00 0.00 64 1014.3
20260503015120 46 150 5.0 7.0 0.00 0.00 0.00 64 1014.3
20260503014846 46 152 5.0 7.0 0.00 0.00 0.00 63 1014.2
20260503014120 46 151 5.0 7.0 0.00 0.00 0.00 63 1014.2
20260503013620 46 181 4.0 7.0 0.00 0.00 0.00 63 1014.2
20260503013120 46 175 4.0 7.0 0.00 0.00 0.00 62 1014.2
20260503012620 46 163 4.0 7.0 0.00 0.00 0.00 62 1014.2
20260503012121 47 142 4.0 6.0 0.00 0.00 0.00 62 1014.2
20260503011622 47 141 4.0 7.0 0.00 0.00 0.00 61 1014.2
20260503011121 47 146 4.0 7.0 0.00 0.00 0.00 61 1014.2
20260503010841 47 158 5.0 8.0 0.00 0.00 0.00 60 1014.2
20260503010121 47 153 5.0 9.0 0.00 0.00 0.00 59 1014.2
20260503005842 47 132 5.0 9.0 0.00 0.00 0.00 59 1014.2
20260503005119 48 125 5.0 9.0 0.00 0.00 0.00 58 1014.2
20260503004619 48 184 5.0 8.0 0.00 0.00 0.00 58 1014.2
20260503004120 48 294 5.0 9.0 0.00 0.00 0.00 57 1014.2
20260503003620 49 169 6.0 13.0 0.00 0.00 0.00 56 1014.2
20260503003119 49 181 6.0 13.0 0.00 0.00 0.00 55 1014.2
20260503002620 49 168 5.0 10.0 0.00 0.00 0.00 54 1014.2
20260503002119 49 145 6.0 10.0 0.00 0.00 0.00 54 1014.3
20260503001619 50 182 6.0 11.0 0.00 0.00 0.00 53 1014.3
20260503001333 50 154 7.0 11.0 0.00 0.00 0.00 52 1014.3
20260503000614 50 135 7.0 11.0 0.00 0.00 0.00 52 1014.3
20260503000114 50 139 6.0 11.0 0.00 0.00 0.00 51 1014.4
20260502235938 50 119 6.0 11.0 0.00 0.00 0.00 51 1014.3
20260502235900 50 303 7.0 11.0 0.00 0.00 0.00 51 1014.4
20260502234616 50 125 6.0 10.0 0.00 0.00 0.00 50 1014.4
20260502234114 51 127 6.0 10.0 0.00 0.00 0.00 51 1014.5
20260502233615 51 127 6.0 10.0 0.00 0.00 0.00 50 1014.6
20260502233114 51 193 6.0 10.0 0.00 0.00 0.00 49 1014.6
20260502232615 51 145 7.0 12.0 0.00 0.00 0.00 49 1014.7
20260502232115 51 149 7.0 12.0 0.00 0.00 0.00 49 1014.7
20260502231610 51 132 6.0 12.0 0.00 0.00 0.00 49 1014.7
20260502231111 52 124 7.0 13.0 0.00 0.00 0.00 48 1014.7
20260502230613 52 141 7.0 13.0 0.00 0.00 0.00 48 1014.6
20260502230114 51 141 6.0 9.0 0.00 0.00 0.00 49 1014.8
20260502225612 51 181 6.0 9.0 0.00 0.00 0.00 49 1014.9
20260502225112 51 124 6.0 11.0 0.00 0.00 0.00 49 1014.9
20260502224614 51 165 6.0 11.0 0.00 0.00 0.00 49 1015.0
20260502224115 52 116 5.0 11.0 0.00 0.00 0.00 47 1014.9
20260502223612 51 111 6.0 13.0 0.00 0.00 0.00 49 1015.0
20260502223113 51 127 6.0 13.0 0.00 0.00 0.00 49 1015.1
20260502222614 51 155 7.0 12.0 0.00 0.00 0.00 48 1015.1
20260502222113 51 131 7.0 12.0 0.00 0.00 0.00 48 1015.1
20260502221610 52 141 7.0 12.0 0.00 0.00 0.00 49 1015.0
20260502221106 52 125 6.0 11.0 0.00 0.00 0.00 48 1015.1
20260502220606 52 125 6.0 13.0 0.00 0.00 0.00 47 1015.2
20260502220106 52 134 7.0 13.0 0.00 0.00 0.00 48 1015.2
20260502215605 52 152 8.0 15.0 0.00 0.00 0.00 46 1015.2
20260502215106 52 131 9.0 15.0 0.00 0.00 0.00 46 1015.0
20260502214607 53 135 9.0 14.0 0.00 0.00 0.00 45 1015.1
20260502214106 52 130 8.0 13.0 0.00 0.00 0.00 45 1015.2
20260502213607 53 147 7.0 13.0 0.00 0.00 0.00 46 1015.2
20260502213107 53 126 6.0 11.0 0.00 0.00 0.00 45 1015.3
20260502212607 53 161 5.0 15.0 0.00 0.00 0.00 47 1015.2
20260502212331 53 154 8.0 15.0 0.00 0.00 0.00 45 1015.2
20260502211605 53 141 7.0 15.0 0.00 0.00 0.00 46 1015.3
20260502211330 53 132 7.0 13.0 0.00 0.00 0.00 46 1015.5
20260502210606 53 139 7.0 13.0 0.00 0.00 0.00 46 1015.4
20260502210106 53 126 7.0 11.0 0.00 0.00 0.00 45 1015.5
20260502205605 53 157 6.0 10.0 0.00 0.00 0.00 45 1015.5
20260502205319 53 93 5.0 10.0 0.00 0.00 0.00 46 1015.7
20260502205203 53 128 5.0 10.0 0.00 0.00 0.00 46 1015.6